Location: Springfield
(37.2150°N, 93.2980°W)
Time: 09:28:25
(UTC-05:00)

SL-8 R/B - Pass Details

Date: 19 April 2018
Orbit: 656 x 668 km, 48.4° (Epoch: 17 June)

Event Time Altitude Azimuth Distance (km) Brightness Sun altitude
Rises 22:12:11 0° 246° (WSW) 2,973 7.4 -25.6°
Reaches altitude 10° 22:14:33 10° 250° (WSW) 2,066 6.6 -25.9°
Maximum altitude 22:19:15 58° 330° (NNW) 769 4.2 -26.6°
Enters shadow 22:20:24 45° 20° (NNE) 901 4.4 -26.8°
